Regional Weather Roundup
Issued by NWS

Home | Current Version | Previous Version | Graphics & Text | Print | Product List | Glossary On
Versions: 1 2 3 4 5 6 7 8 9 10 11 12 13 14 15 16 17 18 19 20 21 22 23 24 25 26 27 28 29 30 31 32 33 34 35 36 37 38 39 40 41 42 43 44 45 46 47 48 49 50
000
ASUS43 KTOP 060308
RWRKS

WEATHER ROUNDUP FOR KANSAS
NATIONAL WEATHER SERVICE GOODLAND KS
1000 PM CDT TUE MAY 05 2015

NOTE:  "FAIR" INDICATES FEW OR NO CLOUDS BELOW 12,000 FEET WITH NO
SIGNIFICANT WEATHER AND/OR OBSTRUCTIONS TO VISIBILITY.

KSZ001>006-013>018-027>032-041>047-060400-
NORTHWEST KANSAS

CITY           SKY/WX    TMP DP  RH WIND       PRES   REMARKS
GOODLAND       CLOUDY    57  56  96 SE17      29.78R
HAYS           CLOUDY    61  54  77 SE15      29.87R
HILL CITY      CLOUDY    61  58  90 SE15G25   29.85R
RUSSELL        CLOUDY    62  60  93 SE21      29.87S
$$

KSZ061>065-074>080-084>089-060400-
SOUTHWEST KANSAS

CITY           SKY/WX    TMP DP  RH WIND       PRES   REMARKS
DODGE CITY     MOCLDY    61  57  87 SE20G26   29.85R
ELKHART          N/A     55  50  83 S12         N/A
GARDEN CITY    MOCLDY    59  58  96 SE21G29   29.81R
GREAT BEND     CLOUDY    63  57  82 SE21G26   29.88R
LIBERAL        CLOUDY    55  50  82 SW9       29.85F
PRATT          CLOUDY    61  59  94 SE20G26   29.90S
$$

KSZ066>073-081>083-090>101-060400-
SOUTHEAST KANSAS

CITY           SKY/WX    TMP DP  RH WIND       PRES   REMARKS
CHANUTE        CLOUDY    67  65  93 SE6       30.01R
COFFEYVILLE    CLOUDY    68  64  87 E5        29.99F
HUTCHINSON     CLOUDY    64  59  83 SE12      29.93R
MEDICINE LODGE   N/A     63  61  93 S13G23    29.90R
NEWTON         CLOUDY    63  54  72 SE14      29.97R
PARSONS        CLOUDY    67  67 100 CALM      30.01S
WICHITA INTL   LGT RAIN  64  60  87 SE17      29.94R
WICHITA JABRA  RAIN      63  59  87 SE12G22   29.95R
WICHITA MCCONL LGT RAIN  63  61  91 SE13      29.95R
WINFIELD       LGT RAIN  65  63  93 SE15      29.98R
$$

KSZ007>012-019>026-033>040-048>060-102>105-060400-
NORTHEAST KANSAS

CITY           SKY/WX    TMP DP  RH WIND       PRES   REMARKS
CONCORDIA      CLOUDY    63  56  78 S12       29.94R
EMPORIA        LGT RAIN  65  62  90 S18G28    29.99R
LAWRENCE       CLOUDY    65  63  93 E8        30.01F
MANHATTAN      CLOUDY    68  61  78 SE7       29.96R
MARYSVILLE     LGT RAIN  64  61  88 SE9       29.97R
OLATHE IND     CLOUDY    65  63  93 E7        30.03S
OLATHE EXE     CLOUDY    65  64  97 E5        30.03S
SALINA         MOCLDY    64  57  78 SE9       29.94R
TOPEKA BILLARD CLOUDY    65  62  90 E8        30.00S
TOPEKA FORBES  CLOUDY    65  62  90 E9        29.99S
$$


USA.gov is the U.S. government's official web portal to all federal, state and local government web resources and services.